Alpena, MI

11:45 PM EDT on March 26, 2017 (GMT -0400)
Alpena County Regional

Weather History for KAPN - December, 2013

Change the Weather History Date:

Sunday, December 22, 2013

  Actual Average Record
Temperature  
Mean Temperature 20 °F 23 °F  
Max Temperature 25 °F 30 °F 59 °F (1918)
Min Temperature 14 °F 16 °F -13 °F (1935)
Degree Days  
Heating Degree Days 45 42  
Month to date heating degree days 997 851  
Since 1 July heating degree days 2865 2674  
Moisture  
Dew Point 18 °F    
Average Humidity 88    
Maximum Humidity 92    
Minimum Humidity 84    
Precipitation  
Precipitation 0.36 in 0.05 in 0.70 in (2006)
Month to date precipitation 2.02 1.27  
Year to date precipitation 31.49 27.68  
Snow  
Snow 5.40 in 0.60 in 6.90 in (1970)
Month to date snowfall 22.4 13.2  
Since 1 July snowfall 25.0 21.3  
Snow Depth 11.00 in    
Sea Level Pressure  
Sea Level Pressure 29.85 in    
Wind  
Wind Speed 13 mph (NE)    
Max Wind Speed 23 mph    
Max Gust Speed 30 mph    
Visibility 2 miles    
Events Fog , Snow    
T = Trace of Precipitation, MM = Missing Value Source: NWS Daily Summary

Daily Weather History Graph

Daily Weather History Graph

Search for Another Location

Airport or City:

Trip Planner

Search our weather history database for the weather conditions in past years. The results will help you decide how hot, cold, wet, or windy it might be!

Date:

Astronomy

Dec. 22, 2013 Rise Set
Actual Time 8:10 AM EST 4:55 PM EST
Civil Twilight 7:36 AM EST 5:29 PM EST
Nautical Twilight 6:59 AM EST 6:07 PM EST
Astronomical Twilight 6:23 AM EST 6:42 PM EST
Moon 10:20 PM EST (12/22) 10:54 AM EST (12/22)
Length of Visible Light 9h 53m
Length of Day
8h 45m
Waning Gibbous, 77% of the Moon is Illuminated
Dec 22
Waning Gibbous
Dec 25
Last Quarter
Jan 1
New
Jan 7
First Quarter
Jan 15
Full

Hourly Weather History & Observations

Time (EST) Temp. Windchill Dew Point Humidity Pressure Visibility Wind Dir Wind Speed Gust Speed Precip Events Conditions
12:54 AM 25.0 °F 12.2 °F 21.0 °F 85% 29.88 in 10.0 mi ENE 16.1 mph - N/A   Overcast
1:54 AM 25.0 °F 13.1 °F 21.9 °F 88% 29.85 in 2.5 mi ENE 13.8 mph 23.0 mph 0.00 in Snow Light Snow
2:35 AM 25.0 °F 13.1 °F 21.9 °F 88% 29.80 in 1.8 mi ENE 13.8 mph 23.0 mph 0.01 in Snow Light Snow
2:54 AM 25.0 °F 12.2 °F 21.9 °F 88% 29.84 in 2.0 mi NE 16.1 mph 24.2 mph 0.02 in Snow Light Snow
3:28 AM 25.0 °F 11.3 °F 21.9 °F 88% 29.84 in 1.8 mi NE 18.4 mph - 0.00 in Snow Light Snow
3:35 AM 25.0 °F 11.7 °F 21.9 °F 88% 29.84 in 1.5 mi NE 17.3 mph - 0.01 in Snow Light Snow
3:38 AM 25.0 °F 13.1 °F 21.9 °F 88% 29.84 in 1.5 mi NE 13.8 mph - 0.01 in Snow Light Snow
3:54 AM 25.0 °F 12.2 °F 21.9 °F 88% 29.90 in 1.5 mi NE 16.1 mph 25.3 mph 0.01 in Snow Light Snow
4:02 AM 24.1 °F 9.4 °F 21.0 °F 88% 29.86 in 1.2 mi NE 20.7 mph 28.8 mph 0.00 in Snow Light Snow
4:11 AM 24.1 °F 10.1 °F 21.0 °F 88% 29.85 in 1.5 mi NE 18.4 mph 28.8 mph 0.01 in Snow Light Snow
4:23 AM 24.1 °F 9.8 °F 21.0 °F 88% 29.83 in 2.0 mi NE 19.6 mph - 0.01 in Snow Light Snow
4:37 AM 23.0 °F 9.2 °F 19.9 °F 88% 29.82 in 2.0 mi NE 17.3 mph 28.8 mph 0.01 in Snow Light Snow
4:54 AM 23.0 °F 9.2 °F 19.9 °F 88% 29.86 in 2.5 mi NE 17.3 mph - 0.02 in Snow Light Snow
5:03 AM 23.0 °F 10.6 °F 19.9 °F 88% 29.83 in 3.0 mi NE 13.8 mph 25.3 mph 0.00 in Snow Light Snow
5:11 AM 23.0 °F 8.3 °F 19.9 °F 88% 29.84 in 2.5 mi NE 19.6 mph 26.5 mph 0.00 in Snow Light Snow
5:29 AM 23.0 °F 8.7 °F 19.0 °F 85% 29.81 in 3.0 mi NE 18.4 mph 25.3 mph 0.00 in Snow Light Snow
5:39 AM 23.0 °F 10.6 °F 19.9 °F 88% 29.79 in 2.5 mi NE 13.8 mph 25.3 mph 0.01 in Snow Light Snow
5:54 AM 23.0 °F 8.3 °F 19.9 °F 88% 29.83 in 2.5 mi NE 19.6 mph 25.3 mph 0.02 in Snow Light Snow
6:21 AM 23.0 °F 8.3 °F 19.9 °F 88% 29.79 in 1.8 mi NE 19.6 mph 26.5 mph 0.01 in Snow Light Snow
6:29 AM 21.9 °F 8.7 °F 19.9 °F 92% 29.80 in 1.0 mi NE 15.0 mph 26.5 mph 0.02 in Snow Light Snow
6:54 AM 21.9 °F 7.8 °F 19.9 °F 92% 29.81 in 1.2 mi NE 17.3 mph 25.3 mph 0.02 in Snow Light Snow
7:02 AM 23.0 °F 9.6 °F 19.9 °F 88% 29.78 in 1.2 mi NE 16.1 mph 24.2 mph 0.01 in Snow Light Snow
7:12 AM 23.0 °F 9.2 °F 19.9 °F 88% 29.77 in 2.0 mi NE 17.3 mph 26.5 mph 0.01 in Snow Light Snow
7:47 AM 23.0 °F 9.6 °F 19.9 °F 88% 29.79 in 2.5 mi NE 16.1 mph 24.2 mph 0.03 in Snow Light Snow
7:54 AM 23.0 °F 10.6 °F 19.9 °F 88% 29.83 in 1.8 mi NE 13.8 mph - 0.03 in Snow Light Snow
8:31 AM 23.0 °F 9.6 °F 19.9 °F 88% 29.78 in 0.5 mi NE 16.1 mph - 0.03 in Fog , Snow Snow
8:41 AM 23.0 °F 10.1 °F 19.9 °F 88% 29.79 in 0.5 mi NE 15.0 mph - 0.03 in Fog , Snow Snow
8:54 AM 23.0 °F 10.1 °F 19.9 °F 88% 29.82 in 0.5 mi NE 15.0 mph 23.0 mph 0.04 in Fog , Snow Snow
9:38 AM 21.9 °F 7.3 °F 19.0 °F 89% 29.78 in 0.8 mi NE 18.4 mph 25.3 mph 0.03 in Snow Light Snow
9:44 AM 21.9 °F 7.3 °F 19.0 °F 89% 29.77 in 1.0 mi NE 18.4 mph 26.5 mph 0.03 in Snow Light Snow
9:51 AM 21.2 °F 6.4 °F 19.4 °F 93% 29.78 in 1.0 mi NE 18.4 mph - 0.04 in Snow Light Snow
9:54 AM 21.9 °F 7.3 °F 19.0 °F 89% 29.81 in 1.0 mi NE 18.4 mph - 0.04 in Snow Light Snow
10:15 AM 21.9 °F 7.3 °F 19.0 °F 89% 29.79 in 0.8 mi NE 18.4 mph - 0.00 in Snow Light Snow
10:31 AM 21.0 °F 6.6 °F 18.0 °F 88% 29.78 in 0.5 mi NE 17.3 mph 24.2 mph 0.01 in Fog , Snow Light Snow
10:54 AM 21.0 °F 5.4 °F 18.0 °F 88% 29.82 in 0.8 mi NE 20.7 mph 29.9 mph 0.01 in Snow Light Snow
11:05 AM 21.0 °F 6.6 °F 17.1 °F 85% 29.79 in 1.0 mi NE 17.3 mph - 0.00 in Snow Light Snow
11:13 AM 21.0 °F 6.6 °F 18.0 °F 88% 29.79 in 0.8 mi NE 17.3 mph - 0.01 in Snow Light Snow
11:22 AM 21.0 °F 7.6 °F 17.1 °F 85% 29.79 in 1.0 mi NE 15.0 mph - 0.01 in Snow Light Snow
11:38 AM 19.9 °F 6.2 °F 17.1 °F 89% 29.81 in 1.0 mi NE 15.0 mph 25.3 mph 0.01 in Snow Light Snow
11:45 AM 19.9 °F 5.2 °F 17.1 °F 89% 29.79 in 0.8 mi NE 17.3 mph - 0.01 in Snow Light Snow
11:54 AM 19.9 °F 5.2 °F 17.1 °F 89% 29.83 in 0.5 mi NE 17.3 mph - 0.01 in Fog , Snow Snow
12:07 PM 19.9 °F 6.7 °F 18.0 °F 92% 29.79 in 0.2 mi NE 13.8 mph - 0.01 in Fog , Snow Snow
12:52 PM 19.4 °F 6.0 °F 17.6 °F 93% 29.79 in 0.5 mi NNE 13.8 mph - 0.04 in Fog , Snow Light Snow
12:54 PM 19.9 °F 6.7 °F 17.1 °F 89% 29.83 in 0.5 mi NNE 13.8 mph - 0.04 in Fog , Snow Light Snow
1:01 PM 19.9 °F 6.7 °F 17.1 °F 89% 29.80 in 0.5 mi NNE 13.8 mph - 0.00 in Fog , Snow Light Snow
1:26 PM 19.9 °F 7.9 °F 17.1 °F 89% 29.80 in 0.2 mi NE 11.5 mph - 0.01 in Fog , Snow Snow
1:41 PM 19.9 °F 6.2 °F 17.1 °F 89% 29.81 in 0.5 mi NNE 15.0 mph - 0.03 in Fog , Snow Snow
1:54 PM 19.9 °F 7.9 °F 17.1 °F 89% 29.85 in 0.8 mi NNE 11.5 mph - 0.03 in Snow Light Snow
2:20 PM 19.9 °F 7.3 °F 17.1 °F 89% 29.82 in 0.2 mi North 12.7 mph - 0.03 in Fog , Snow Snow
2:29 PM 19.9 °F 7.3 °F 17.1 °F 89% 29.82 in 0.5 mi North 12.7 mph - 0.04 in Fog , Snow Snow
2:32 PM 19.9 °F 6.7 °F 17.1 °F 89% 29.82 in 0.2 mi North 13.8 mph - 0.04 in Fog , Snow Snow
2:52 PM 19.4 °F 5.0 °F 17.6 °F 93% 29.81 in 0.8 mi NNE 16.1 mph - 0.05 in Snow Light Snow
2:54 PM 19.9 °F 5.7 °F 16.0 °F 85% 29.84 in 0.8 mi NNE 16.1 mph - 0.05 in Snow Light Snow
3:02 PM 19.9 °F 7.3 °F 17.1 °F 89% 29.80 in 1.0 mi NE 12.7 mph - 0.01 in Snow Light Snow
3:20 PM 19.9 °F 7.3 °F 15.1 °F 81% 29.81 in 2.5 mi NE 12.7 mph - 0.01 in Snow Light Snow
3:27 PM 19.9 °F 6.2 °F 15.1 °F 81% 29.81 in 3.0 mi NE 15.0 mph - 0.01 in Snow Light Snow
3:36 PM 19.9 °F 12.1 °F 16.0 °F 85% 29.83 in 2.5 mi NE 5.8 mph - 0.01 in Snow Light Snow
3:49 PM 19.4 °F 8.6 °F 15.8 °F 86% 29.86 in 3.0 mi NNE 9.2 mph - 0.01 in Snow Light Snow
3:54 PM 19.9 °F 10.1 °F 15.1 °F 81% 29.90 in 3.0 mi NNE 8.1 mph - 0.01 in Snow Light Snow
4:25 PM 19.9 °F 10.1 °F 16.0 °F 85% 29.88 in 2.0 mi North 8.1 mph - 0.00 in Snow Light Snow
4:39 PM 19.0 °F 9.0 °F 16.0 °F 88% 29.89 in 1.8 mi North 8.1 mph - 0.00 in Snow Light Snow
4:54 PM 19.0 °F 8.2 °F 16.0 °F 88% 29.93 in 1.8 mi North 9.2 mph - 0.00 in Snow Light Snow
5:06 PM 19.0 °F 6.8 °F 16.0 °F 88% 29.90 in 2.0 mi North 11.5 mph - 0.00 in Snow Light Snow
5:54 PM 19.0 °F 8.2 °F 16.0 °F 88% 29.97 in 2.0 mi North 9.2 mph - 0.00 in Snow Light Snow
6:31 PM 19.0 °F 8.2 °F 16.0 °F 88% 29.94 in 3.0 mi North 9.2 mph - 0.00 in Snow Light Snow
6:54 PM 19.0 °F 10.0 °F 16.0 °F 88% 29.98 in 7.0 mi North 6.9 mph - 0.00 in Snow Light Snow
7:54 PM 19.0 °F 8.2 °F 16.0 °F 88% 29.98 in 7.0 mi NNE 9.2 mph - 0.00 in   Overcast
8:08 PM 18.0 °F 5.4 °F 15.1 °F 88% 29.94 in 4.0 mi North 11.5 mph - 0.00 in Snow Light Snow
8:54 PM 18.0 °F 5.4 °F 14.0 °F 84% 30.02 in 2.0 mi NNE 11.5 mph - 0.00 in Snow Light Snow
9:01 PM 17.1 °F 5.0 °F 14.0 °F 88% 29.99 in 1.8 mi NNE 10.4 mph - 0.00 in Snow Light Snow
9:31 PM 17.1 °F 5.0 °F 12.9 °F 84% 29.98 in 2.0 mi NNE 10.4 mph - 0.00 in Snow Light Snow
9:44 PM 16.0 °F 3.6 °F 12.9 °F 88% 29.98 in 3.0 mi NNE 10.4 mph - 0.00 in Snow Light Snow
9:54 PM 16.0 °F 3.6 °F 12.9 °F 88% 30.03 in 3.0 mi NNE 10.4 mph - 0.00 in Snow Light Snow
10:54 PM 15.1 °F 5.2 °F 12.0 °F 88% 30.05 in 10.0 mi NNE 6.9 mph - 0.00 in   Overcast
11:54 PM 14.0 °F 3.9 °F 10.9 °F 88% 30.07 in 10.0 mi North 6.9 mph - N/A   Overcast